User: anonymous   Login
Location: Unspecified
(0.0000°N, 0.0000°E)
Time: 17:14:44
(UTC+00:00)
Language:

deb DMSP - Orbit

View from above orbital plane
View from above orbital plane
View from above satellite
View from above satellite

Ground track
Ground track

The orbit is defined by the following mean orbital elements,

1 24756U 97012B   20299.74527306  .10380304  32750-5  64178-2 0  9998
2 24756  98.7776 284.1782 0012830 182.8944 177.2267 16.17786890253287
Epoch (UTC): 25 October 2020 17:53:11
Eccentricity: 0.0012830
inclination: 98.7776°
perigee height: 217 km
apogee height: 234 km
right ascension of ascending node: 284.1782°
argument of perigee: 182.8944°
revolutions per day: 16.17786890
mean anomaly at epoch: 177.2267°

The dashed part of the orbit path shows where the satellite is in the earth's shadow,  

DLR